OPS 4682 DEB, 38415

Orbit data source: Space-Track

OPS 4682 DEB, 38415 is space debris in LEO originally from a launch on Sat, 03 Apr 1965 UTC launched from the Air Force Western Test Range (AFWTR). Debris objects in space refer to the collection of defunct objects orbiting the Earth. Examples of debris include non-operational satellites, rocket bodies, and fragments generated from explosions, collisions, or faulty payload assembly.

Loading next visibility...
Identifier
38415, 1965-027DU
Orbit
LEO
Country
Flag of USUS
Related business
Manufacturer
Unknown
Mission
Spacecraft
Bus & Motor
Unknown
Mass
Unknown
Launch date (UTC)
1965-04-03 (61 years ago)
Launch vehicle
Unknown
Launch site
Air Force Western Test Range (AFWTR)
Object type
Payload
Rocket body
Debris
Shape & HBR
Unknown shape, 0.1 m
Radar Cross Section
Medium (>0.1 m² and <1 m²)

Expand to show TLE details & history
Last TLE update: 3 days ago

TLE from 3 days ago
0 OPS 4682 DEB
1 38415U 65027DU  26206.44095881  .00000277  00000-0  86432-3 0  9998
2 38415  90.2467  15.3962 0029534  14.7574 345.4405 13.02413631619913
Epoch: 2026-07-25T10:34Z
TLE epoch observation values (Epoch: 2026-07-25T10:34:58.841Z)
Latitude
-0°
Longitude
-86.50217°
Altitude
1,233.719 km
Speed
7.248 km/s
True Right ascension
01h 01m 35s
True Declination
0° 00' 00"
Sunlit
Object was in daylight at epoch
Visualization orbit readout
Latitude
Unknown
Longitude
Unknown
Altitude
Unknown
Speed
Unknown
Apparent Right ascension
Unknown
Apparent Declination
Unknown
Sunlit
N/A
Visualization observer readout
Local Sidereal Time
13:04:48
Azimuth
Unknown
Elevation
Unknown
Doppler factor
Unknown
Orbital elements
Apogee altitude
1,272.296 km
Perigee altitude
1,227.24 km
Semi-major axis
7,627.905 km
Eccentricity
0.00295
Inclination
90.2467°
RAAN
15.3962°
Arg. of periapsis
14.7574°
True anomaly
345.35512°
Mean anomaly
345.4405°
Eccentric anomaly
345.39784°
Mean motion
3.25788 °/min
Orbital period
110.5 mins
BSTAR
0.00086432
Loading maneuver chart data...
Computing Atmospheric mass density...
Loading historical data...
Loading historical data...
Loading historical data...
Loading historical data...
Loading historical data...
Loading historical data...
Loading historical data...

Documentation

Showing up to 5 results
|